• In Czech Republic
  • List of Countries
  • For 7 days
  • Water Temperature
  • Satellite Maps
  • Weather Map
  • Weather Widgets
  • user-avatar
    Login

    Hourly Weather Eisenstadt

    Today, 23 September, Sunday

    Time Temperature Precipitation Wind Pressure Humidity
    00:00 +12°C° 0 mm 1 mps 726 mmHg 72%
    01:00 +12°C° 0 mm 1 mps 726 mmHg 73%
    02:00 +12°C° 0.1 mm 1 mps 726 mmHg 73%
    03:00 +12°C° 0.1 mm 1 mps 726 mmHg 74%
    04:00 +12°C° 0.1 mm 1 mps 726 mmHg 74%
    05:00 +12°C° 0.1 mm 1 mps 725 mmHg 75%
    06:00 +12°C° 0.1 mm 1 mps 725 mmHg 76%
    07:00 +12°C° 0.1 mm 1 mps 725 mmHg 77%
    08:00 +13°C° 0.1 mm 2 mps 725 mmHg 76%
    09:00 +13°C° 0.1 mm 2 mps 725 mmHg 75%
    10:00 +13°C° 0.1 mm 2 mps 725 mmHg 74%
    11:00 +13°C° 0.1 mm 3 mps 724 mmHg 72%
    12:00 +14°C° 0.1 mm 3 mps 724 mmHg 70%
    13:00 +16°C° 0.1 mm 3 mps 724 mmHg 68%
    14:00 +17°C° 0 mm 3 mps 723 mmHg 65%
    15:00 +19°C° 0 mm 3 mps 722 mmHg 62%
    16:00 +20°C° 0 mm 3 mps 722 mmHg 59%
    17:00 +19°C° 0 mm 3 mps 721 mmHg 64%
    18:00 +18°C° 0 mm 3 mps 720 mmHg 69%
    19:00 +17°C° 0 mm 3 mps 719 mmHg 74%
    20:00 +18°C° 0 mm 3 mps 719 mmHg 76%
    21:00 +18°C° 0 mm 4 mps 718 mmHg 78%
    22:00 +18°C° 0 mm 4 mps 717 mmHg 80%
    23:00 +18°C° 0.4 mm 4 mps 717 mmHg 82%

    Tomorrow, 24 September, Monday

    Time Temperature Precipitation Wind Pressure Humidity
    00:00 +17°C° 0.4 mm 5 mps 717 mmHg 84%
    01:00 +17°C° 0.4 mm 5 mps 717 mmHg 86%
    02:00 +15°C° 0.7 mm 6 mps 718 mmHg 83%
    03:00 +14°C° 0.7 mm 6 mps 720 mmHg 80%
    04:00 +11°C° 0.7 mm 7 mps 721 mmHg 78%
    05:00 +10°C° 0.2 mm 7 mps 722 mmHg 77%
    06:00 +9°C° 0.2 mm 7 mps 724 mmHg 77%
    07:00 +8°C° 0.2 mm 7 mps 725 mmHg 76%
    08:00 +9°C° 0 mm 7 mps 726 mmHg 68%
    09:00 +10°C° 0 mm 8 mps 727 mmHg 60%
    10:00 +11°C° 0 mm 8 mps 728 mmHg 52%
    11:00 +12°C° 0 mm 8 mps 729 mmHg 48%
    12:00 +12°C° 0 mm 8 mps 729 mmHg 44%
    13:00 +14°C° 0 mm 7 mps 729 mmHg 40%
    14:00 +12°C° 0 mm 7 mps 730 mmHg 41%
    15:00 +13°C° 0 mm 6 mps 730 mmHg 43%
    16:00 +13°C° 0 mm 6 mps 730 mmHg 44%
    17:00 +10°C° 0 mm 5 mps 730 mmHg 49%
    18:00 +10°C° 0 mm 4 mps 731 mmHg 54%
    19:00 +9°C° 0 mm 3 mps 731 mmHg 58%
    20:00 +8°C° 0 mm 3 mps 732 mmHg 61%
    21:00 +7°C° 0 mm 3 mps 732 mmHg 64%
    22:00 +7°C° 0 mm 2 mps 733 mmHg 66%
    23:00 +7°C° 0 mm 2 mps 733 mmHg 68%

    Day after tomorrow, 25 September, Tuesday

    Time Temperature Precipitation Wind Pressure Humidity
    00:00 +6°C° 0 mm 2 mps 733 mmHg 70%
    01:00 +6°C° 0 mm 2 mps 733 mmHg 73%
    02:00 +6°C° 0 mm 2 mps 733 mmHg 74%
    03:00 +5°C° 0 mm 2 mps 733 mmHg 76%
    04:00 +5°C° 0 mm 2 mps 734 mmHg 77%
    05:00 +4°C° 0 mm 3 mps 734 mmHg 75%
    06:00 +5°C° 0 mm 3 mps 734 mmHg 74%
    07:00 +5°C° 0 mm 3 mps 735 mmHg 72%
    08:00 +7°C° 0 mm 4 mps 735 mmHg 63%
    09:00 +8°C° 0 mm 4 mps 736 mmHg 55%
    10:00 +9°C° 0 mm 5 mps 736 mmHg 46%
    11:00 +10°C° 0 mm 5 mps 736 mmHg 43%
    12:00 +12°C° 0 mm 5 mps 736 mmHg 40%
    13:00 +12°C° 0 mm 5 mps 735 mmHg 37%
    14:00 +12°C° 0 mm 4 mps 735 mmHg 37%
    15:00 +12°C° 0 mm 4 mps 735 mmHg 38%
    16:00 +12°C° 0 mm 4 mps 735 mmHg 39%
    17:00 +10°C° 0 mm 4 mps 735 mmHg 45%
    18:00 +8°C° 0 mm 3 mps 736 mmHg 51%
    19:00 +7°C° 0 mm 2 mps 736 mmHg 57%
    20:00 +6°C° 0 mm 2 mps 736 mmHg 60%
    21:00 +6°C° 0 mm 2 mps 736 mmHg 62%
    22:00 +5°C° 0 mm 2 mps 737 mmHg 65%
    23:00 +6°C° 0 mm 1 mps 737 mmHg 66%

    26 September, Wednesday

    Time Temperature Precipitation Wind Pressure Humidity
    00:00 +5°C° 0 mm 1 mps 737 mmHg 68%
    01:00 +5°C° 0 mm 1 mps 737 mmHg 69%
    02:00 +5°C° 0 mm 1 mps 737 mmHg 70%
    03:00 +5°C° 0 mm 1 mps 736 mmHg 71%
    04:00 +4°C° 0 mm 1 mps 736 mmHg 72%
    05:00 +5°C° 0 mm 1 mps 736 mmHg 70%
    06:00 +5°C° 0 mm 1 mps 736 mmHg 68%
    07:00 +6°C° 0 mm 1 mps 736 mmHg 66%
    08:00 +8°C° 0 mm 1 mps 736 mmHg 58%
    09:00 +9°C° 0 mm 2 mps 736 mmHg 50%
    10:00 +12°C° 0 mm 2 mps 736 mmHg 43%
    11:00 +13°C° 0 mm 3 mps 736 mmHg 39%
    12:00 +14°C° 0 mm 3 mps 736 mmHg 36%
    13:00 +16°C° 0 mm 3 mps 735 mmHg 33%
    14:00 +16°C° 0 mm 3 mps 735 mmHg 34%
    15:00 +16°C° 0 mm 3 mps 734 mmHg 35%
    16:00 +16°C° 0 mm 3 mps 734 mmHg 36%
    17:00 +13°C° 0 mm 3 mps 734 mmHg 42%
    18:00 +12°C° 0 mm 2 mps 734 mmHg 48%
    19:00 +9°C° 0 mm 2 mps 733 mmHg 54%
    20:00 +8°C° 0 mm 2 mps 733 mmHg 55%
    21:00 +8°C° 0 mm 2 mps 733 mmHg 56%
    22:00 +7°C° 0 mm 2 mps 734 mmHg 57%
    23:00 +7°C° 0 mm 2 mps 733 mmHg 58%

    27 September, Thursday

    Time Temperature Precipitation Wind Pressure Humidity
    00:00 +7°C° 0 mm 2 mps 733 mmHg 58%
    01:00 +7°C° 0 mm 2 mps 733 mmHg 58%
    02:00 +7°C° 0 mm 2 mps 733 mmHg 59%
    03:00 +8°C° 0 mm 1 mps 732 mmHg 59%
    04:00 +8°C° 0 mm 1 mps 732 mmHg 59%
    05:00 +8°C° 0 mm 1 mps 732 mmHg 58%
    06:00 +9°C° 0 mm 1 mps 732 mmHg 57%
    07:00 +9°C° 0 mm 1 mps 732 mmHg 56%
    08:00 +12°C° 0 mm 1 mps 732 mmHg 50%
    09:00 +15°C° 0 mm 1 mps 733 mmHg 43%
    10:00 +19°C° 0 mm 1 mps 733 mmHg 37%
    11:00 +20°C° 0 mm 1 mps 732 mmHg 35%
    12:00 +21°C° 0 mm 1 mps 732 mmHg 33%
    13:00 +23°C° 0 mm 1 mps 732 mmHg 30%
    14:00 +22°C° 0 mm 1 mps 731 mmHg 33%
    15:00 +22°C° 0 mm 1 mps 731 mmHg 35%
    16:00 +22°C° 0 mm 1 mps 731 mmHg 37%
    17:00 +19°C° 0 mm 1 mps 730 mmHg 42%
    18:00 +16°C° 0 mm 1 mps 730 mmHg 47%
    19:00 +14°C° 0 mm 1 mps 730 mmHg 52%
    20:00 +13°C° 0 mm 1 mps 730 mmHg 54%
    21:00 +13°C° 0 mm 1 mps 730 mmHg 55%
    22:00 +12°C° 0 mm 1 mps 730 mmHg 57%
    23:00 +12°C° 0 mm 1 mps 729 mmHg 58%

    28 September, Friday

    Time Temperature Precipitation Wind Pressure Humidity
    00:00 +12°C° 0 mm 1 mps 729 mmHg 58%
    01:00 +11°C° 0 mm 1 mps 729 mmHg 59%
    02:00 +11°C° 0 mm 1 mps 728 mmHg 59%
    03:00 +11°C° 0 mm 1 mps 728 mmHg 59%
    04:00 +11°C° 0 mm 1 mps 728 mmHg 60%
    05:00 +11°C° 0 mm 1 mps 728 mmHg 60%
    06:00 +11°C° 0 mm 1 mps 728 mmHg 59%
    07:00 +12°C° 0 mm 1 mps 728 mmHg 59%
    08:00 +15°C° 0 mm 1 mps 728 mmHg 52%
    09:00 +18°C° 0 mm 1 mps 728 mmHg 45%
    10:00 +21°C° 0 mm 1 mps 728 mmHg 38%
    11:00 +22°C° 0 mm 1 mps 728 mmHg 36%
    12:00 +23°C° 0 mm 1 mps 727 mmHg 33%
    13:00 +24°C° 0 mm 1 mps 727 mmHg 30%
    14:00 +24°C° 0 mm 1 mps 727 mmHg 32%
    15:00 +24°C° 0 mm 1 mps 726 mmHg 34%
    16:00 +23°C° 0 mm 1 mps 726 mmHg 36%
    17:00 +21°C° 0 mm 1 mps 726 mmHg 41%
    18:00 +18°C° 0 mm 1 mps 726 mmHg 46%
    19:00 +15°C° 0 mm 1 mps 726 mmHg 50%
    20:00 +14°C° 0 mm 1 mps 726 mmHg 52%
    21:00 +14°C° 0 mm 1 mps 726 mmHg 53%
    22:00 +13°C° 0 mm 1 mps 726 mmHg 55%
    23:00 +13°C° 0 mm 1 mps 725 mmHg 56%
    Show more